Wilmington, DE

2:27 PM EST on November 20, 2019 (GMT -0500)
New Castle County

Weather History for KILG - October, 2019

Change the Weather History Date:

Wednesday, October 23, 2019

  Actual Average Record
Temperature  
Mean Temperature 57 °F 54 °F  
Max Temperature 68 °F 64 °F 86 °F (1947)
Min Temperature 45 °F 44 °F 28 °F (1969)
Degree Days  
Heating Degree Days 8 11  
Month to date heating degree days 119 188  
Since 1 July heating degree days 125 240  
Cooling Degree Days 0 0  
Month to date cooling degree days 46 15  
Year to date cooling degree days 1505 1142  
Growing Degree Days 8 (Base 50)    
Moisture  
Dew Point 45 °F    
Average Humidity 66    
Maximum Humidity 100    
Minimum Humidity 32    
Precipitation  
Precipitation 0.00 in 0.11 in 2.49 in (1912)
Month to date precipitation 3.41 2.61  
Year to date precipitation 40.01 35.69  
Snow  
Snow 0.00 in 0.00 in T in (1963)
Month to date snowfall 0.0 0.0  
Since 1 July snowfall 0.0 0.0  
Since 1 September snowfall 0.0 0.0  
Snow Depth 0.00 in    
Sea Level Pressure  
Sea Level Pressure 30.02 in    
Wind  
Wind Speed 9 mph (WNW)    
Max Wind Speed 21 mph    
Max Gust Speed 27 mph    
Visibility 10 miles    
Events      
T = Trace of Precipitation, MM = Missing Value Source: NWS Daily Summary

Daily Weather History Graph

Daily Weather History Graph

Search for Another Location

Airport or City:

Astronomy

Oct. 23, 2019 Rise Set
Actual Time 7:20 AM EDT 6:12 PM EDT
Civil Twilight 6:53 AM EDT 6:39 PM EDT
Nautical Twilight 6:21 AM EDT 7:11 PM EDT
Astronomical Twilight 5:50 AM EDT 7:42 PM EDT
Moon 1:37 AM EDT (10/23) 4:00 PM EDT (10/23)
Length of Visible Light 11h 46m
Length of Day
10h 51m
Waning Crescent, 27% of the Moon is Illuminated
Oct 23
Waning Crescent
Oct 27
New
Nov 4
First Quarter
Nov 12
Full
Nov 19
Last Quarter

Hourly Weather History & Observations

Time (EDT) Temp. Dew Point Humidity Pressure Visibility Wind Dir Wind Speed Gust Speed Precip Events Conditions
12:51 AM 60.1 °F 59.0 °F 96% 29.83 in 9.0 mi WNW 8.1 mph - N/A   Overcast
1:51 AM 57.0 °F 55.9 °F 96% 29.83 in 10.0 mi WNW 6.9 mph - N/A   Scattered Clouds
2:51 AM 55.0 °F 54.0 °F 96% 29.83 in 10.0 mi NW 6.9 mph - N/A   Clear
3:51 AM 54.0 °F 53.1 °F 97% 29.84 in 10.0 mi WNW 5.8 mph - N/A   Clear
4:51 AM 54.0 °F 52.0 °F 93% 29.87 in 10.0 mi WNW 8.1 mph - N/A   Clear
5:51 AM 52.0 °F 51.1 °F 97% 29.90 in 10.0 mi WNW 8.1 mph - N/A   Clear
6:51 AM 51.1 °F 50.0 °F 96% 29.94 in 10.0 mi WNW 6.9 mph - N/A   Clear
7:51 AM 52.0 °F 51.1 °F 97% 29.97 in 10.0 mi West 5.8 mph - N/A   Clear
8:51 AM 55.9 °F 52.0 °F 87% 30.01 in 10.0 mi West 8.1 mph - N/A   Clear
9:51 AM 57.9 °F 52.0 °F 81% 30.02 in 10.0 mi West 5.8 mph - N/A   Clear
10:51 AM 63.0 °F 48.9 °F 60% 30.03 in 10.0 mi WNW 10.4 mph - N/A   Partly Cloudy
11:51 AM 64.0 °F 44.1 °F 48% 30.04 in - WNW 17.3 mph 21.9 mph N/A   Clear
12:51 PM 66.0 °F 39.0 °F 37% 30.03 in 10.0 mi WNW 18.4 mph 21.9 mph N/A   Partly Cloudy
1:51 PM 66.9 °F 37.9 °F 34% 30.03 in 10.0 mi West 17.3 mph 24.2 mph N/A   Clear
2:51 PM 66.9 °F 35.1 °F 31% 30.03 in 10.0 mi WNW 16.1 mph 24.2 mph N/A   Clear
3:51 PM 66.9 °F 35.1 °F 31% 30.05 in 10.0 mi West 16.1 mph 23.0 mph N/A   Clear
4:51 PM 66.0 °F 35.1 °F 32% 30.06 in 10.0 mi West 11.5 mph - N/A   Clear
5:51 PM 63.0 °F 35.1 °F 35% 30.09 in 10.0 mi West 8.1 mph - N/A   Clear
6:51 PM 57.9 °F 37.0 °F 46% 30.12 in 10.0 mi WSW 5.8 mph - N/A   Clear
7:51 PM 57.0 °F 37.0 °F 47% 30.15 in 10.0 mi SW 4.6 mph - N/A   Clear
8:51 PM 54.0 °F 37.9 °F 55% 30.17 in 10.0 mi West 4.6 mph - N/A   Clear
9:51 PM 53.1 °F 39.0 °F 59% 30.20 in 10.0 mi West 4.6 mph - N/A   Clear
10:51 PM 50.0 °F 39.0 °F 66% 30.22 in 10.0 mi West 3.5 mph - N/A   Clear
11:51 PM 48.0 °F 41.0 °F 77% 30.22 in 10.0 mi NW 3.5 mph - N/A   Clear